DW5138 Weather Reports


time (UTC)temp
C
wind
direction
speed
KPH
gust
KPH
rain 1hr
cm
rain 24hr
cm
rain mn
cm
humidity
%
barometer
mb
20220124102846 0 106 0.0 0.0 0.00 2.84 0.00 45 3044.0
20220124102345 0 106 0.0 0.0 0.00 2.84 0.00 45 3045.0
20220124101845 0 106 0.0 0.0 0.00 2.84 0.00 45 3045.4
20220124101345 0 106 0.0 0.0 0.00 2.84 0.00 45 3045.7
20220124100845 0 106 0.0 0.0 0.00 2.84 0.00 45 3046.1
20220124100345 0 106 0.0 0.0 0.00 2.84 0.00 45 3046.6
20220124095845 0 106 0.0 0.0 0.00 2.84 0.00 45 3047.3
20220124095345 0 106 0.0 0.0 0.00 2.84 0.00 45 3047.8
20220124094845 0 106 0.0 0.0 0.00 2.84 0.00 45 3048.2
20220124094345 0 106 0.0 0.0 0.00 2.84 0.00 45 3048.0
20220124093845 0 106 0.0 0.0 0.00 2.84 0.00 45 3048.5
20220124093344 0 106 0.0 0.0 0.00 2.84 0.00 45 3048.8
20220124092845 0 106 0.0 0.0 0.00 2.84 0.00 45 3049.3
20220124092344 0 106 0.0 0.0 0.00 2.84 0.00 45 3049.4
20220124091844 0 106 0.0 0.0 0.00 2.84 0.00 45 3049.4
20220124091346 1 109 0.0 0.0 0.00 2.84 0.00 45 3051.3
20220124090844 1 109 0.0 0.0 0.00 2.84 0.00 46 3051.0
20220124090345 1 109 0.0 1.6 0.00 2.84 0.00 47 3051.1
20220124085845 1 109 0.0 1.6 0.00 2.84 0.00 48 3051.4
20220124085345 0 109 0.0 1.6 0.00 2.84 0.00 48 3049.5
20220124084844 0 109 0.0 0.0 0.00 2.84 0.00 49 3049.3
20220124084346 0 109 0.0 0.0 0.00 2.84 0.00 48 3049.1
20220124083845 0 109 0.0 0.0 0.00 2.84 0.00 48 3048.9
20220124083344 0 109 0.0 0.0 0.00 2.84 0.00 49 3048.8
20220124082845 0 109 0.0 0.0 0.00 2.84 0.00 49 3048.9
20220124082344 0 109 0.0 0.0 0.00 2.84 0.00 50 3048.9
20220124081844 0 109 0.0 0.0 0.00 2.84 0.00 50 3049.0
20220124081344 0 109 0.0 0.0 0.00 2.84 0.00 50 3048.9
20220124080845 0 116 0.0 0.0 0.00 2.84 0.00 49 3048.9
20220124080344 0 116 0.0 0.0 0.00 2.84 0.00 48 3049.0
20220124075844 1 116 0.0 0.0 0.00 2.84 0.00 48 3050.5
20220124075344 0 116 0.0 1.6 0.00 2.84 0.00 49 3049.3
20220124074845 0 116 0.0 1.6 0.00 2.84 0.00 51 3049.4
20220124074344 0 116 0.0 0.0 0.00 2.84 0.00 51 3049.7
20220124073845 0 116 0.0 0.0 0.00 2.84 0.00 51 3049.7
20220124073344 0 116 0.0 0.0 0.00 2.84 0.00 50 3049.9
20220124072844 0 116 0.0 0.0 0.00 2.84 0.00 50 3050.0
20220124072343 0 116 0.0 0.0 0.00 2.84 0.00 52 3050.1
20220124071845 0 116 0.0 0.0 0.00 2.84 0.00 53 3050.1
20220124071344 0 116 0.0 0.0 0.00 2.84 0.00 54 3048.6
20220124070844 0 116 0.0 0.0 0.00 2.84 0.00 54 3050.3
20220124070344 0 116 0.0 0.0 0.00 2.84 2.84 53 3050.6
20220124065845 0 116 0.0 0.0 0.00 2.84 2.84 53 3050.9
20220124065344 0 116 0.0 0.0 0.00 2.84 2.84 53 3050.8
20220124064843 0 116 0.0 0.0 0.00 2.84 2.84 54 3050.8
20220124064344 0 116 0.0 0.0 0.00 2.84 2.84 54 3050.9
20220124063843 0 116 0.0 1.6 0.00 2.84 2.84 53 3051.3
20220124063345 0 116 0.0 1.6 0.00 2.84 2.84 53 3051.2
20220124062844 0 104 0.0 0.0 0.00 2.84 2.84 53 3051.6
20220124062343 0 99 0.0 3.2 0.00 2.84 2.84 53 3051.7
20220124061843 0 99 0.0 3.2 0.00 2.84 2.84 55 3052.1
20220124061343 0 92 0.0 0.0 0.00 2.84 2.84 57 3050.2
20220124060843 0 142 0.0 0.0 0.00 2.84 2.84 56 3050.3
20220124060343 0 142 0.0 0.0 0.00 2.84 2.84 55 3051.1
20220124055843 0 118 0.0 0.0 0.00 2.84 2.84 54 3052.9
20220124055343 0 118 0.0 0.0 0.00 2.84 2.84 55 3052.7
20220124054843 0 118 0.0 0.0 0.00 2.84 2.84 55 3051.5
20220124054343 0 118 0.0 0.0 0.00 2.84 2.84 56 3051.6
20220124053843 0 118 0.0 0.0 0.00 2.84 2.84 56 3051.9
20220124053343 0 118 0.0 1.6 0.00 2.84 2.84 56 3052.0
20220124052843 0 118 0.0 1.6 0.00 2.84 2.84 56 3052.1
20220124052343 0 155 0.0 1.6 0.00 2.84 2.84 56 3052.2
20220124051844 0 60 0.0 1.6 0.00 2.84 2.84 56 3052.6
20220124051342 0 60 0.0 0.0 0.00 2.84 2.84 55 3054.4
20220124050842 0 60 0.0 0.0 0.00 2.84 2.84 56 3053.0
20220124050342 0 60 0.0 0.0 0.00 2.84 2.84 56 3052.9
20220124045844 -1 60 0.0 0.0 0.00 2.84 2.84 59 3053.0
20220124045343 -1 60 0.0 0.0 0.00 2.84 2.84 60 3053.6
20220124044842 -1 60 0.0 0.0 0.00 2.84 2.84 61 3052.2
20220124044342 -1 60 0.0 0.0 0.00 2.84 2.84 60 3052.6
20220124043843 -1 60 0.0 0.0 0.00 2.84 2.84 60 3054.2
20220124043342 -1 60 0.0 0.0 0.00 2.84 2.84 60 3054.1
20220124042842 -1 60 0.0 0.0 0.00 2.84 2.84 60 3054.4
20220124042342 -1 60 0.0 0.0 0.00 2.84 2.84 60 3054.9
20220124041842 -1 60 0.0 0.0 0.00 2.84 2.84 61 3055.0
20220124041342 -1 60 0.0 0.0 0.00 2.84 2.84 62 3053.6
20220124040842 -1 60 0.0 0.0 0.00 2.84 2.84 64 3054.0
20220124040342 -2 60 0.0 0.0 0.00 2.84 2.84 64 3054.1
20220124035842 -2 60 0.0 0.0 0.00 2.84 2.84 63 3054.1
20220124035343 -1 60 0.0 0.0 0.00 2.84 2.84 62 3054.1
20220124034844 -1 60 0.0 0.0 0.00 2.84 2.84 61 3054.5
20220124034343 -1 60 0.0 0.0 0.00 2.84 2.84 59 3056.2
20220124033842 0 60 0.0 0.0 0.00 2.84 2.84 58 3056.2
20220124033342 0 60 0.0 1.6 0.00 2.84 2.84 57 3056.0
20220124032842 0 60 0.0 1.6 0.00 2.84 2.84 56 3057.6
20220124032342 0 60 0.0 0.0 0.00 2.84 2.84 56 3057.5
20220124031842 0 60 0.0 0.0 0.00 2.84 2.84 56 3057.5
20220124031343 0 60 0.0 0.0 0.00 2.84 2.84 56 3057.3
20220124030843 0 60 0.0 1.6 0.00 2.84 2.84 56 3057.3
20220124030342 0 60 0.0 1.6 0.00 2.84 2.84 56 3057.5
20220124025842 0 60 0.0 0.0 0.00 2.84 2.84 56 3057.4
20220124025342 0 60 0.0 0.0 0.00 2.84 2.84 56 3057.3
20220124024842 0 60 0.0 0.0 0.00 2.84 2.84 56 3057.5
20220124024343 0 60 0.0 0.0 0.00 2.84 2.84 56 3057.4
20220124023842 0 60 0.0 0.0 0.00 2.84 2.84 57 3057.6
20220124023342 0 60 0.0 0.0 0.00 2.84 2.84 56 3057.9
20220124022842 0 60 0.0 1.6 0.00 2.84 2.84 55 3058.2
20220124022341 0 60 0.0 1.6 0.00 2.84 2.84 55 3058.3
20220124021842 0 60 0.0 0.0 0.00 2.84 2.84 56 3058.5
20220124021342 0 60 0.0 0.0 0.00 2.84 2.84 56 3058.5
20220124020841 0 60 0.0 0.0 0.00 2.84 2.84 56 3058.3
20220124020342 0 60 0.0 0.0 0.00 2.84 2.84 55 3058.6
20220124015841 0 60 0.0 0.0 0.00 2.84 2.84 55 3058.3
20220124015342 0 60 0.0 0.0 0.00 2.84 2.84 55 3058.6
20220124014841 0 60 0.0 0.0 0.00 2.84 2.84 55 3058.3
20220124014342 0 60 0.0 0.0 0.00 2.84 2.84 54 3058.4
20220124013842 1 60 0.0 0.0 0.00 2.84 2.84 53 3060.1
20220124013341 1 60 0.0 0.0 0.00 2.84 2.84 52 3059.7
20220124012841 1 60 0.0 1.6 0.00 2.84 2.84 52 3059.8
20220124012341 1 60 0.0 1.6 0.00 2.84 2.84 51 3059.5
20220124011842 1 60 0.0 1.6 0.00 2.84 2.84 51 3059.4
20220124011341 2 58 0.0 0.0 0.00 2.84 2.84 49 3060.6
20220124010841 2 58 0.0 1.6 0.00 2.84 2.84 48 3060.7
20220124010341 2 58 0.0 1.6 0.00 2.84 2.84 48 3060.7
20220124005841 2 58 0.0 1.6 0.00 2.84 2.84 48 3060.8
20220124005341 2 58 0.0 1.6 0.00 2.84 2.84 48 3060.6
20220124004841 2 58 0.0 0.0 0.00 2.84 2.84 49 3060.5
20220124004341 2 58 0.0 1.6 0.00 2.84 2.84 48 3060.6
20220124003840 2 58 0.0 1.6 0.00 2.84 2.84 48 3060.4
20220124003341 2 58 0.0 1.6 0.00 2.84 2.84 47 3060.1
20220124002841 2 58 0.0 1.6 0.00 2.84 2.84 47 3059.9
20220124002341 3 58 0.0 1.6 0.00 2.84 2.84 47 3061.5
20220124001841 3 58 0.0 1.6 0.00 2.84 2.84 46 3061.3
20220124001340 3 58 0.0 1.6 0.00 2.84 2.84 46 3061.0
20220124000840 3 54 0.0 1.6 0.00 2.84 2.84 45 3060.8
20220124000341 3 54 0.0 1.6 0.00 2.84 2.84 44 3061.2
20220123235840 4 54 0.0 1.6 2.84 2.84 2.84 43 3062.9
20220123235341 4 54 0.0 1.6 2.84 2.84 2.84 42 3062.8
20220123234840 5 54 0.0 4.8 2.84 2.84 2.84 41 3063.1
20220123234340 5 54 1.6 4.8 2.84 2.84 2.84 41 3064.5
20220123233840 5 76 0.0 1.6 2.84 2.84 2.84 40 3064.5
20220123233341 6 76 0.0 3.2 2.84 2.84 2.84 38 3064.4
20220123232840 6 295 0.0 3.2 2.84 2.84 2.84 37 3066.0
20220123232340 7 70 0.0 3.2 2.84 2.84 2.84 36 3066.0
20220123231840 7 70 0.0 6.4 2.84 2.84 2.84 37 3065.9
20220123231340 7 28 0.0 6.4 2.84 2.84 2.84 36 3067.3
20220123230841 7 286 4.8 4.8 2.84 2.84 2.84 36 3067.4
20220123230340 7 273 0.0 4.8 2.84 2.84 2.84 35 3067.6